Temperature
22 20 20 21 21 21 20 19 19 18 18 17 16 15 15 15 15 15 15 15 15 15 15 14 14 14 14 13 13 13 13 13 13 13 13 13 13 14 14 14 14 14 15 15
20 20 21 20 20 19 19 19 18 18 17 16 15 15 15 15 15 15 15 15 15 15 15 14 14 14 13 13 13 13 13 12 12 12 12 12 13 13 13 13 13 14 14 14
21 21 21 20 20 19 19 18 18 18 16 15 15 15 15 15 15 15 15 15 15 15 15 14 14 14 13 13 13 13 12 12 12 12 12 12 12 13 13 13 13 13 13 14
20 20 20 20 20 19 19 19 19 18 16 15 16 14 14 14 14 14 15 15 15 15 15 14 14 14 13 13 13 12 12 12 12 12 12 12 12 12 12 12 13 13 13 13
20 20 20 20 20 20 19 18 18 17 16 15 15 14 13 14 13 13 14 15 15 15 15 14 14 14 13 13 13 12 12 12 12 12 12 11 11 11 12 12 12 13 13 13
19 20 20 19 19 18 18 16 15 13 13 15 15 14 14 12 13 14 14 15 15 15 15 14 14 14 13 13 12 12 12 12 12 11 11 11 11 11 12 12 12 12 13 13
19 19 19 20 19 17 16 15 14 15 14 14 15 14 14 14 13 14 15 15 15 15 15 14 14 14 13 13 12 12 12 12 12 11 11 11 11 11 11 11 12 12 12 12
19 18 19 19 18 18 16 15 15 15 14 13 14 14 14 15 15 15 15 15 15 15 15 14 14 14 13 13 13 12 12 12 11 11 11 11 11 11 11 11 11 12 12 12
18 18 19 19 19 18 17 14 14 13 14 14 13 14 14 15 15 15 15 15 15 15 15 15 14 14 13 13 13 12 12 12 12 11 11 11 11 11 11 11 11 12 12 12
17 18 18 19 18 17 17 13 12 13 14 14 13 14 14 15 14 13 14 15 16 15 15 15 14 14 14 13 13 12 12 12 12 11 11 11 11 11 11 11 11 11 11 12
17 16 17 18 18 18 16 15 12 11 12 13 13 13 14 15 14 13 14 16 16 16 15 15 15 14 14 13 13 13 12 12 12 11 11 11 11 11 11 11 11 11 11 11
15 14 15 17 17 17 17 16 13 14 13 11 12 12 14 14 14 15 15 16 16 16 15 15 15 14 14 14 13 13 13 12 12 11 11 11 11 11 11 11 11 11 11 11
15 14 16 17 16 17 17 15 13 11 11 10 12 13 14 14 14 15 16 16 16 16 16 15 15 15 14 14 13 13 13 12 12 12 11 11 11 11 10 10 10 10 11 11
16 14 16 17 16 16 17 16 13 13 12 12 12 13 14 14 13 15 16 16 16 16 16 15 15 15 14 14 14 13 13 12 12 12 11 11 11 10 10 10 10 10 10 10
15 16 17 17 17 17 17 17 14 14 13 13 14 13 14 14 14 16 17 17 16 16 16 16 15 15 14 14 14 13 13 13 12 12 11 11 10 10 10 10 10 10 10 10
14 17 18 18 17 17 18 17 16 15 14 14 13 13 14 16 16 16 17 17 17 17 16 16 16 15 15 14 14 14 13 13 12 12 11 11 10 10 10 10 10 10 10 10
14 16 16 17 17 18 18 18 17 16 15 15 15 15 15 16 16 17 18 18 17 17 17 16 16 15 15 14 14 14 13 13 12 11 11 11 11 10 10 10 10 10 10 10
14 13 12 14 18 19 18 18 17 17 17 15 15 15 16 17 18 18 19 18 18 17 17 16 16 15 15 15 14 14 13 13 12 11 11 11 11 10 10 10 10 10 10 10
13 13 13 13 16 17 18 19 18 19 19 18 16 16 17 17 17 18 20 19 18 18 17 17 16 15 15 15 14 14 13 13 12 12 11 11 11 10 10 10 10 10 10 10
12 12 12 13 17 18 19 19 19 19 19 19 18 18 17 16 14 16 20 19 19 18 17 17 16 16 15 15 15 14 14 13 12 12 11 11 11 10 10 10 10 10 10 10
15 13 13 14 16 16 16 18 19 18 18 19 19 19 18 16 17 20 20 19 19 18 18 17 16 16 15 15 15 14 14 13 13 12 12 11 11 11 10 10 10 10 10 10
14 13 13 12 16 17 16 17 16 17 18 19 19 20 19 20 20 20 20 19 19 18 18 17 17 16 16 15 15 15 14 14 13 12 12 12 11 11 11 11 10 10 10 10
13 14 12 13 15 14 14 14 15 16 17 18 18 19 20 20 20 20 20 19 19 18 18 17 17 16 16 16 15 15 15 14 13 13 13 12 12 11 11 11 11 10 10 10
13 12 12 13 14 14 13 14 15 16 16 17 18 19 19 19 20 20 19 19 19 18 18 17 17 17 17 16 16 16 15 14 14 13 13 12 12 12 11 11 11 11 10 10
12 11 13 13 13 13 14 13 14 16 17 18 18 18 18 19 19 19 19 19 19 18 18 17 17 17 17 17 16 16 15 15 14 14 13 13 13 12 12 11 11 11 11 10
10 10 13 13 12 11 12 12 13 15 16 16 17 18 17 18 18 18 18 18 18 18 18 17 17 17 17 17 16 16 16 15 15 15 14 14 13 13 12 12 12 11 11 11
Wind_Speed
5 7 4 3 4 4 5 5 3 1 2 3 3 3 3 3 3 3 2 2 4 6 6 6 6 6 7 7 8 8 8 8 7 5 5 5 5 5 5 4 6 7 7 6
7 4 1 5 7 7 6 5 3 3 3 3 2 2 3 3 4 4 4 4 5 6 7 7 7 6 6 7 8 8 8 8 7 5 5 4 5 5 5 4 5 6 6 6
7 1 4 7 6 6 3 4 3 3 3 4 3 5 4 3 2 3 4 4 5 6 7 8 8 8 7 8 8 8 8 8 7 7 5 5 4 4 4 4 4 5 6 6
7 3 5 6 4 3 1 0 3 4 3 1 1 4 6 4 4 5 6 5 7 7 7 7 8 8 8 8 8 8 8 8 7 7 6 6 5 5 5 5 5 7 6 6
4 3 5 5 2 2 2 3 4 3 4 2 1 2 7 1 5 8 8 7 7 7 7 8 8 8 8 7 7 7 8 7 7 7 7 6 6 5 6 6 7 6 5 5
4 3 3 3 3 4 5 7 7 6 5 2 2 4 7 4 7 6 5 6 7 7 7 8 7 7 7 7 7 7 7 7 8 8 8 7 8 8 8 8 7 6 5 4
5 4 4 2 4 6 7 6 5 5 5 4 2 3 8 6 7 6 6 7 8 7 7 7 8 8 8 8 8 7 7 7 8 8 8 8 8 8 7 7 7 6 5 4
4 2 4 3 3 3 3 6 6 2 3 5 3 5 7 5 4 4 5 5 6 7 7 7 8 7 7 8 7 7 7 7 7 8 8 8 8 6 6 6 6 6 5 5
6 2 2 2 3 6 4 3 5 6 1 3 6 7 8 2 3 4 5 6 7 8 8 7 7 7 6 7 7 6 6 7 7 7 8 8 8 7 7 7 6 5 5 5
7 5 1 1 6 5 4 8 5 4 1 4 8 6 5 6 8 8 7 8 9 8 7 7 7 6 6 5 5 5 4 5 6 6 6 6 7 7 7 7 8 8 7 7
4 6 1 3 2 2 4 4 5 4 4 4 4 7 6 7 7 8 9 9 9 8 8 7 6 6 6 5 5 5 5 5 5 6 6 6 7 7 7 7 8 8 7 7
4 6 2 3 2 2 3 5 6 4 2 4 3 8 7 7 8 8 9 8 7 7 7 7 6 6 5 5 5 5 4 4 5 5 5 6 6 7 7 8 8 8 8 8
6 6 4 4 5 1 2 4 5 6 5 4 3 8 5 4 6 7 8 9 8 7 7 6 5 6 6 6 5 5 4 4 5 4 5 6 6 7 7 8 8 8 8 8
5 5 6 6 6 5 4 5 6 6 3 4 7 9 10 8 9 9 9 9 8 7 7 6 6 6 6 6 5 5 5 4 4 3 4 5 6 6 7 7 7 8 7 7
5 4 3 3 3 4 5 5 7 8 8 8 8 8 13 11 9 9 8 7 7 8 8 8 7 6 6 6 5 4 4 4 3 3 4 5 6 6 6 7 7 7 7 8
3 4 3 3 3 3 4 6 7 7 6 8 8 10 11 8 5 6 7 8 8 9 9 8 8 7 6 6 6 5 4 3 2 3 4 5 6 6 6 7 7 7 7 7
3 4 3 2 4 3 5 6 6 6 8 8 8 9 6 5 6 7 8 9 10 10 9 9 8 7 7 6 6 5 4 2 2 3 4 5 5 6 6 7 7 7 7 6
6 5 4 2 2 2 6 3 6 5 7 9 9 10 8 8 7 7 7 9 10 9 9 8 7 6 6 4 4 4 2 2 2 4 5 5 5 6 6 6 7 6 5 6
4 7 5 3 1 6 7 2 5 2 5 4 7 9 6 2 4 6 7 9 11 10 9 8 7 6 5 5 4 3 3 2 3 5 5 5 4 5 6 6 7 5 5 5
6 6 6 4 2 3 5 3 1 3 5 5 4 6 1 4 2 6 6 6 9 8 7 7 5 4 5 5 4 5 4 4 6 6 5 5 4 4 5 6 5 4 4 5
3 4 4 4 3 7 7 4 2 3 5 6 3 4 5 6 7 5 5 4 6 7 7 6 6 5 6 5 5 6 6 7 7 5 4 4 4 4 4 4 4 4 5 5
7 6 5 5 3 5 5 1 2 4 5 5 5 4 5 8 8 7 7 6 6 6 6 6 6 7 6 5 6 7 8 8 5 4 4 4 4 3 2 3 4 4 5 5
7 7 6 7 5 1 4 2 5 5 5 5 5 6 5 6 6 6 6 7 6 7 7 6 7 7 6 6 8 9 9 7 5 5 6 5 4 3 2 2 3 3 3 4
2 1 4 2 3 2 4 5 7 6 4 6 6 6 4 4 6 6 6 6 6 6 6 5 6 7 8 7 9 10 8 6 6 7 7 5 5 5 3 2 2 2 2 3
3 3 4 3 0 2 4 9 10 9 8 9 9 9 8 7 7 6 6 6 6 6 5 5 7 9 10 8 9 9 8 7 7 8 7 6 6 5 5 4 4 4 4 4
3 5 6 5 3 3 1 7 9 9 11 11 11 12 11 9 9 8 6 6 6 6 5 5 7 9 10 9 9 9 8 9 9 8 8 6 5 5 5 4 4 7 8 8
Wind_Direction
39 70 94 172 179 165 150 152 162 171 131 136 173 186 198 171 168 194 232 273 294 294 296 306 312 320 327 330 332 327 328 327 334 334 331 325 320 313 309 300 299 297 292 283
54 62 69 98 83 89 100 119 120 73 61 104 134 261 246 210 212 220 228 253 279 296 310 314 315 320 323 322 325 325 327 325 328 323 310 294 292 294 289 294 306 301 296 289
118 123 89 90 80 78 75 145 165 152 68 58 71 314 253 245 228 232 239 254 277 285 296 306 312 312 318 321 323 327 324 324 324 326 322 319 313 311 317 318 312 305 304 294
88 61 86 83 74 99 147 239 146 136 116 299 126 294 284 248 263 257 255 268 280 288 293 300 307 311 315 314 318 323 325 325 327 332 333 334 328 318 304 303 297 299 298 296
83 91 88 86 74 109 139 57 85 105 127 51 28 213 291 306 263 261 254 258 270 279 287 297 302 301 308 314 319 323 329 330 334 338 336 332 326 312 307 308 305 306 300 296
73 57 82 116 78 70 107 69 56 50 71 350 246 186 284 240 231 253 246 251 269 281 293 299 302 308 312 319 324 330 335 332 337 341 341 339 331 325 326 326 323 317 308 301
44 24 20 82 75 33 65 76 30 4 8 268 270 215 255 258 232 227 234 249 269 281 289 296 304 310 314 320 324 328 332 329 335 340 341 339 334 331 328 326 324 323 318 311
128 346 353 43 110 103 78 119 141 203 254 292 318 253 259 268 251 235 236 254 278 286 285 287 289 294 304 312 320 326 328 325 330 336 336 337 340 337 333 329 327 324 317 307
147 176 351 67 99 117 110 96 150 132 174 296 295 292 305 256 269 257 260 271 275 280 283 285 291 296 301 306 311 316 321 323 330 335 335 337 342 345 343 340 339 335 329 323
132 129 11 61 71 50 104 138 94 99 105 307 305 293 270 269 258 257 256 258 266 277 282 287 291 294 297 297 303 317 321 322 326 335 339 344 342 344 344 347 348 345 339 336
100 120 40 38 102 156 107 85 97 103 141 156 298 284 232 236 242 240 246 248 255 268 276 279 283 289 296 304 309 313 320 325 329 334 337 344 343 345 347 348 346 343 340 341
103 111 126 271 278 214 162 154 144 142 202 167 199 270 267 247 249 237 245 252 256 265 270 273 279 291 300 305 307 306 307 314 317 325 336 340 340 343 346 343 341 342 344 343
130 108 84 355 346 352 157 141 133 123 116 156 201 266 291 287 267 249 246 254 262 272 279 280 284 288 290 292 297 298 298 303 313 328 337 341 341 341 339 337 338 341 343 344
111 108 153 183 219 201 197 175 149 134 157 215 231 261 295 285 266 259 247 248 256 266 271 271 275 280 281 282 285 291 292 297 309 328 337 335 331 330 329 334 338 340 341 344
99 124 178 220 223 178 209 203 178 187 196 210 246 253 271 275 257 251 243 243 251 264 268 265 263 271 279 281 283 281 284 298 313 329 332 324 322 327 334 339 339 339 343 346
78 114 80 15 1 201 249 246 207 215 215 235 267 278 263 268 259 254 244 237 245 256 260 263 263 266 270 269 270 270 274 286 303 316 316 320 327 332 337 337 337 342 345 345
91 112 97 323 329 35 290 251 200 217 214 204 234 252 278 277 262 250 240 232 237 245 251 254 255 252 258 260 252 251 257 264 292 304 311 319 325 329 331 335 342 343 342 346
120 98 107 81 47 260 247 245 192 221 251 220 238 260 265 254 268 263 236 226 237 242 243 244 243 247 255 252 243 235 229 238 278 296 303 311 320 322 328 337 340 337 336 341
117 125 109 106 122 291 302 250 177 196 297 239 238 274 287 287 339 303 242 216 225 231 231 232 230 230 243 247 230 199 217 239 270 282 288 298 310 317 327 334 332 330 333 338
66 88 108 120 144 226 255 296 186 113 314 291 244 283 258 112 13 285 287 235 230 231 226 226 226 222 237 239 195 191 219 236 254 261 270 285 296 305 313 319 321 323 324 324
87 67 112 146 205 261 265 284 99 95 272 298 285 277 183 199 220 250 301 267 234 229 225 219 213 223 235 218 182 206 224 237 244 252 265 280 288 291 296 313 321 327 332 338
165 151 166 148 177 255 326 72 141 237 285 303 298 287 236 245 266 274 282 271 249 235 228 212 212 235 237 201 191 217 234 239 237 241 255 269 278 286 306 317 325 337 344 346
184 184 180 178 187 238 352 338 314 298 293 310 311 310 290 275 284 281 274 268 255 239 233 218 216 238 243 213 201 221 239 229 220 231 246 257 266 270 277 292 311 329 343 343
222 109 144 168 175 153 31 357 346 338 330 327 332 337 350 319 310 304 292 282 268 255 244 231 222 236 248 229 216 227 236 213 209 229 243 246 252 264 265 253 254 272 296 312
188 156 155 171 235 360 18 9 352 354 14 21 18 20 14 1 345 328 312 298 282 271 261 239 231 241 250 244 232 233 225 204 213 230 239 240 238 246 257 252 236 236 239 225
194 174 170 185 183 161 31 351 352 12 23 21 23 23 18 13 355 346 333 323 313 300 291 272 255 251 256 252 247 243 220 202 209 227 235 233 231 235 240 253 272 243 236 249
Height
1525 1533 1541 1539 1538 1540 1543 1550 1554 1554 1552 1555 1558 1560 1559 1558 1559 1559 1558 1558 1557 1556 1555 1553 1551 1548 1544 1541 1537 1533 1530 1526 1523 1519 1516 1514 1512 1510 1509 1508 1508 1508 1508 1508
1533 1539 1537 1536 1538 1541 1546 1552 1555 1555 1553 1557 1560 1560 1558 1558 1558 1557 1557 1557 1556 1555 1554 1552 1550 1547 1543 1540 1536 1532 1529 1525 1522 1518 1515 1512 1509 1507 1506 1505 1504 1504 1504 1504
1537 1540 1536 1538 1542 1546 1549 1553 1554 1557 1558 1559 1562 1563 1559 1557 1556 1556 1556 1556 1555 1554 1552 1551 1548 1545 1542 1539 1535 1532 1528 1524 1521 1517 1514 1511 1508 1505 1504 1502 1501 1500 1500 1500
1538 1537 1539 1542 1546 1547 1553 1548 1550 1555 1563 1568 1565 1576 1561 1557 1556 1555 1554 1554 1553 1553 1551 1549 1547 1544 1541 1538 1535 1531 1527 1524 1520 1517 1513 1510 1506 1504 1501 1499 1498 1497 1496 1495
1540 1539 1541 1545 1546 1546 1550 1549 1552 1555 1562 1570 1569 1575 1567 1558 1557 1554 1552 1552 1552 1551 1550 1548 1546 1543 1541 1537 1534 1531 1527 1524 1520 1516 1513 1509 1506 1503 1500 1498 1495 1494 1493 1492
1540 1540 1541 1544 1545 1546 1548 1554 1558 1565 1570 1578 1569 1575 1569 1562 1555 1551 1550 1550 1550 1550 1549 1547 1545 1543 1540 1537 1534 1530 1527 1523 1519 1516 1512 1509 1505 1502 1499 1496 1494 1492 1490 1489
1545 1544 1543 1543 1547 1549 1552 1564 1579 1578 1585 1580 1568 1571 1566 1552 1549 1548 1548 1548 1548 1548 1547 1545 1544 1541 1539 1536 1533 1529 1526 1523 1519 1515 1512 1509 1505 1501 1498 1495 1492 1490 1488 1487
1552 1556 1547 1545 1548 1552 1556 1563 1580 1585 1588 1582 1570 1571 1558 1548 1546 1546 1547 1547 1547 1546 1546 1544 1542 1540 1538 1535 1532 1529 1526 1522 1519 1515 1512 1508 1505 1501 1498 1495 1491 1489 1486 1485
1552 1555 1547 1545 1546 1549 1557 1565 1566 1579 1579 1584 1577 1566 1553 1546 1546 1545 1545 1545 1545 1545 1544 1543 1541 1539 1537 1534 1532 1529 1525 1522 1519 1515 1512 1508 1505 1501 1498 1494 1491 1488 1485 1483
1543 1553 1549 1547 1547 1550 1553 1562 1572 1579 1584 1588 1581 1572 1563 1548 1546 1544 1543 1543 1543 1543 1542 1541 1540 1538 1536 1534 1531 1528 1525 1522 1519 1515 1512 1508 1505 1501 1498 1494 1491 1487 1485 1482
1540 1553 1554 1551 1552 1554 1558 1563 1572 1581 1582 1589 1589 1576 1549 1545 1542 1541 1540 1540 1541 1541 1540 1539 1538 1537 1535 1533 1530 1528 1525 1522 1519 1515 1512 1508 1505 1501 1498 1494 1491 1487 1484 1481
1543 1554 1561 1555 1550 1550 1552 1557 1568 1577 1579 1585 1588 1575 1541 1540 1538 1538 1538 1538 1539 1539 1538 1538 1537 1535 1534 1532 1529 1527 1524 1521 1518 1515 1512 1508 1505 1501 1498 1494 1491 1487 1484 1481
1542 1553 1565 1563 1561 1554 1553 1557 1563 1572 1580 1587 1586 1569 1540 1538 1537 1536 1536 1536 1536 1537 1536 1536 1535 1534 1532 1530 1528 1526 1524 1521 1518 1515 1512 1508 1505 1501 1498 1494 1491 1487 1484 1481
1538 1550 1559 1563 1561 1554 1554 1555 1561 1567 1576 1579 1573 1560 1543 1538 1535 1533 1533 1533 1534 1534 1534 1534 1533 1532 1531 1529 1527 1525 1523 1520 1517 1514 1511 1508 1505 1501 1498 1494 1491 1487 1484 1481
1538 1548 1547 1548 1547 1549 1550 1551 1557 1561 1562 1566 1558 1554 1541 1534 1531 1529 1529 1530 1531 1532 1532 1531 1531 1530 1529 1527 1526 1524 1522 1519 1517 1514 1511 1508 1504 1501 1498 1495 1491 1488 1485 1481
1539 1545 1546 1547 1546 1547 1548 1547 1550 1554 1554 1555 1553 1548 1531 1529 1528 1527 1527 1527 1528 1529 1529 1529 1529 1528 1527 1526 1524 1523 1521 1519 1516 1514 1511 1507 1504 1502 1498 1495 1492 1489 1485 1482
1542 1546 1553 1555 1550 1547 1550 1542 1545 1546 1545 1546 1548 1539 1529 1528 1526 1525 1524 1525 1525 1526 1527 1527 1527 1526 1526 1525 1523 1522 1520 1518 1516 1513 1510 1507 1505 1502 1499 1495 1492 1489 1486 1483
1542 1550 1559 1560 1552 1555 1546 1534 1536 1538 1537 1537 1535 1530 1527 1526 1524 1523 1523 1523 1523 1524 1524 1524 1525 1524 1524 1523 1522 1520 1519 1517 1515 1513 1510 1508 1505 1502 1499 1496 1493 1490 1486 1483
1538 1547 1558 1564 1560 1555 1540 1532 1533 1535 1535 1530 1530 1526 1525 1524 1523 1521 1520 1520 1520 1521 1522 1522 1523 1522 1522 1521 1520 1519 1517 1516 1514 1512 1510 1507 1505 1502 1499 1496 1493 1490 1487 1484
1541 1544 1556 1563 1556 1555 1541 1531 1530 1534 1537 1528 1526 1525 1524 1524 1528 1523 1519 1518 1518 1519 1520 1520 1521 1520 1520 1519 1518 1517 1516 1514 1513 1511 1509 1507 1505 1502 1499 1496 1493 1491 1488 1485
1546 1551 1556 1560 1558 1551 1535 1530 1531 1543 1542 1527 1525 1524 1523 1522 1522 1520 1518 1517 1517 1518 1518 1518 1518 1518 1518 1517 1516 1515 1514 1513 1512 1510 1508 1506 1504 1502 1499 1496 1494 1491 1488 1485
1544 1551 1555 1559 1556 1549 1533 1531 1535 1535 1528 1526 1525 1523 1521 1520 1518 1517 1516 1516 1516 1516 1516 1516 1516 1516 1516 1515 1515 1513 1512 1512 1510 1509 1507 1506 1504 1501 1499 1496 1494 1491 1488 1486
1537 1537 1541 1543 1544 1538 1534 1533 1532 1529 1527 1525 1523 1522 1520 1518 1517 1515 1515 1514 1514 1514 1514 1514 1514 1513 1513 1513 1512 1511 1511 1510 1508 1507 1506 1504 1503 1501 1498 1496 1494 1491 1489 1486
1532 1531 1534 1537 1535 1534 1533 1531 1528 1526 1525 1524 1522 1520 1519 1517 1516 1514 1513 1513 1512 1512 1512 1512 1511 1511 1510 1510 1509 1509 1508 1507 1506 1505 1504 1503 1501 1500 1498 1495 1493 1491 1489 1486
1527 1529 1531 1532 1532 1531 1531 1529 1527 1526 1524 1522 1521 1519 1518 1516 1514 1513 1512 1511 1510 1510 1510 1509 1509 1508 1508 1507 1507 1506 1505 1505 1503 1502 1501 1500 1499 1498 1496 1494 1492 1490 1489 1486
1526 1527 1527 1528 1529 1530 1531 1529 1527 1525 1523 1522 1520 1519 1517 1516 1514 1512 1511 1509 1508 1507 1507 1506 1505 1504 1504 1504 1503 1503 1502 1501 1500 1499 1498 1497 1496 1495 1494 1492 1491 1489 1487 1486